GSAT0211 (GALILEO 14)

Last updated on Thu Oct 10 2024 00:02:28 GMT+0000 (Coordinated Universal Time)

1 41549U 16030A 24282.88209769 .00000026 00000+0 00000+0 0 9996 2 41549 55.3191 238.6476 0003495 329.7934 30.1680 1.70473152 52165
UTC large
Height (km)
Speed (km/s)
/
Latitude / Longitude
Inclination (degrees)
Orbital Period (minutes)
Azimuth
Elevation
Range (km)
Doppler Factor

Next 0 passes for location: London (51.5072 / 0.1276)

Sorry there are no passes over London.